THA212 VTSP-VTBS

Flight info

Callsign THA212
Flight time 1h 5m
Altitude 35000
Route EMRIT1B EMRIT Y99 NONEL Y98 LEBIM LEBIM1C
Aircraft B772/H-SDE2E3FGHIJ5LORVWXY/LB1D1

Departure

Time 2026-05-04 09:25
Airport Phuket International Airport (VTSP)

Arrival

Time 2026-05-04 10:30
Airport Suvarnabhumi Airport (VTBS)
Time Latitude Longitude Altitude Speed Heading
2026-05-04 09:03 8.10905 98.30547 32 ft 0 kts 105°
2026-05-04 09:10 8.10905 98.30546 32 ft 2 kts 105°
2026-05-04 09:10 8.10912 98.30521 31 ft 4 kts 105°
2026-05-04 09:11 8.10918 98.30495 32 ft 4 kts 99°
2026-05-04 09:11 8.10920 98.30469 32 ft 4 kts 67°
2026-05-04 09:11 8.10906 98.30456 30 ft 4 kts 14°
2026-05-04 09:11 8.10882 98.30450 31 ft 1 kts 14°
2026-05-04 09:15 8.10894 98.30454 31 ft 4 kts 14°
2026-05-04 09:17 8.11112 98.30977 34 ft 16 kts 67°
2026-05-04 09:18 8.11130 98.31090 34 ft 16 kts 85°
2026-05-04 09:18 8.11140 98.31204 35 ft 16 kts 84°
2026-05-04 09:18 8.11151 98.31319 37 ft 16 kts 84°
2026-05-04 09:18 8.11163 98.31434 40 ft 16 kts 84°
2026-05-04 09:19 8.11174 98.31549 44 ft 16 kts 84°
2026-05-04 09:19 8.11184 98.31664 49 ft 16 kts 85°
2026-05-04 09:19 8.11194 98.31779 54 ft 16 kts 84°
2026-05-04 09:19 8.11206 98.31893 52 ft 16 kts 84°
2026-05-04 09:20 8.11217 98.32008 55 ft 16 kts 85°
2026-05-04 09:20 8.11227 98.32123 69 ft 16 kts 85°
2026-05-04 09:20 8.11233 98.32199 72 ft 16 kts 85°
2026-05-04 09:20 8.11248 98.32351 69 ft 16 kts 84°
2026-05-04 09:21 8.11260 98.32466 83 ft 16 kts 84°
2026-05-04 09:21 8.11269 98.32580 87 ft 16 kts 85°
2026-05-04 09:21 8.11280 98.32695 90 ft 16 kts 84°
2026-05-04 09:21 8.11292 98.32810 95 ft 16 kts 84°
2026-05-04 09:22 8.11299 98.32887 93 ft 16 kts 85°
2026-05-04 09:22 8.11309 98.33003 96 ft 17 kts 85°
2026-05-04 09:22 8.11341 98.33110 104 ft 16 kts 43°
2026-05-04 09:22 8.11429 98.33102 102 ft 14 kts 308°
2026-05-04 09:23 8.11447 98.33010 98 ft 8 kts 265°
2026-05-04 09:23 8.11440 98.32926 95 ft 44 kts 265°
2026-05-04 09:23 8.11383 98.32327 73 ft 126 kts 264°
2026-05-04 09:23 8.11279 98.31212 155 ft 184 kts 264°
2026-05-04 09:25 8.07039 98.22950 4003 ft 264 kts 172°
2026-05-04 09:25 8.05187 98.23144 4668 ft 271 kts 173°
2026-05-04 09:26 8.03295 98.23302 5495 ft 274 kts 174°
2026-05-04 09:26 8.01401 98.23487 6235 ft 272 kts 165°
2026-05-04 09:26 7.99733 98.24396 6778 ft 278 kts 131°
2026-05-04 09:26 7.98860 98.26073 7539 ft 277 kts 101°
2026-05-04 09:27 7.98804 98.28008 8287 ft 278 kts 83°
2026-05-04 09:27 7.99145 98.29943 8935 ft 283 kts 78°
2026-05-04 09:27 7.99576 98.31901 9601 ft 289 kts 77°
2026-05-04 09:27 8.00037 98.33888 10266 ft 293 kts 77°
2026-05-04 09:28 8.00521 98.35967 10531 ft 317 kts 77°
2026-05-04 09:28 8.01074 98.38199 10691 ft 338 kts 71°
2026-05-04 09:28 8.02252 98.40304 11209 ft 353 kts 50°
2026-05-04 09:28 8.04108 98.41945 11956 ft 358 kts 38°
2026-05-04 09:29 8.06106 98.43484 12776 ft 365 kts 39°
2026-05-04 09:29 8.08126 98.45060 13716 ft 369 kts 39°
2026-05-04 09:29 8.10166 98.46661 14551 ft 373 kts 39°
2026-05-04 09:29 8.12218 98.48281 15382 ft 377 kts 39°
2026-05-04 09:30 8.14296 98.49930 16222 ft 382 kts 39°
2026-05-04 09:30 8.16399 98.51603 17073 ft 388 kts 39°
2026-05-04 09:30 8.18537 98.53308 17939 ft 393 kts 39°
2026-05-04 09:30 8.20691 98.55029 18738 ft 398 kts 39°
2026-05-04 09:31 8.22874 98.56775 19538 ft 402 kts 39°
2026-05-04 09:31 8.25080 98.58542 20336 ft 407 kts 39°
2026-05-04 09:31 8.27283 98.60305 21111 ft 411 kts 39°
2026-05-04 09:31 8.29540 98.62113 21873 ft 417 kts 39°
2026-05-04 09:32 8.31826 98.63943 22638 ft 422 kts 39°
2026-05-04 09:32 8.34138 98.65795 23424 ft 426 kts 39°
2026-05-04 09:34 8.50985 98.79300 27461 ft 457 kts 39°
2026-05-04 09:34 8.53491 98.81310 27977 ft 461 kts 39°
2026-05-04 09:34 8.56013 98.83333 28436 ft 465 kts 39°
2026-05-04 09:34 8.58557 98.85375 28936 ft 469 kts 39°
2026-05-04 09:35 8.61122 98.87434 29389 ft 473 kts 39°
2026-05-04 09:35 8.63711 98.89513 29848 ft 477 kts 39°
2026-05-04 09:35 8.66295 98.91587 30205 ft 481 kts 39°
2026-05-04 09:35 8.68920 98.93693 30663 ft 481 kts 39°
2026-05-04 09:37 8.87410 99.08551 33293 ft 488 kts 38°
2026-05-04 09:37 8.90069 99.10690 33635 ft 489 kts 38°
2026-05-04 09:38 8.92740 99.12838 33849 ft 492 kts 38°
2026-05-04 09:38 8.95429 99.15000 34147 ft 492 kts 38°
2026-05-04 09:38 8.98060 99.17118 34580 ft 487 kts 38°
2026-05-04 09:38 9.00691 99.19238 34830 ft 481 kts 38°
2026-05-04 09:39 9.05936 99.23462 34811 ft 484 kts 38°
2026-05-04 09:39 9.11225 99.27721 34814 ft 485 kts 38°
2026-05-04 09:40 9.16500 99.31974 34830 ft 484 kts 38°
2026-05-04 09:40 9.21855 99.36128 34829 ft 484 kts 32°
2026-05-04 09:42 9.47161 99.45270 34831 ft 486 kts 16°
2026-05-04 09:43 9.53619 99.47283 34835 ft 484 kts 16°
2026-05-04 09:43 9.60064 99.49288 34831 ft 483 kts 16°
2026-05-04 09:44 9.66484 99.51285 34830 ft 482 kts 16°
2026-05-04 09:46 9.92033 99.59246 34838 ft 481 kts 16°
2026-05-04 09:46 9.98428 99.61241 34840 ft 481 kts 16°
2026-05-04 09:47 10.04842 99.63243 34838 ft 481 kts 16°
2026-05-04 09:49 10.30483 99.71253 34836 ft 482 kts 17°
2026-05-04 09:51 10.53007 99.78303 34839 ft 490 kts 17°
2026-05-04 09:51 10.59550 99.80349 34842 ft 493 kts 17°
2026-05-04 09:52 10.66115 99.82407 34843 ft 493 kts 17°
2026-05-04 09:52 10.72637 99.84453 34839 ft 485 kts 17°
2026-05-04 09:53 10.79059 99.86467 34840 ft 483 kts 17°
2026-05-04 09:53 10.85504 99.88492 34857 ft 487 kts 17°
2026-05-04 09:54 10.91734 99.91140 34839 ft 490 kts 28°
2026-05-04 09:54 10.97697 99.94541 34843 ft 492 kts 29°
2026-05-04 09:55 11.03681 99.97964 34841 ft 492 kts 29°
2026-05-04 09:55 11.09664 100.01344 34862 ft 491 kts 28°
2026-05-04 09:56 11.15645 100.04704 34844 ft 491 kts 28°
2026-05-04 09:56 11.21618 100.08061 34858 ft 490 kts 28°
2026-05-04 09:57 11.27587 100.11420 34858 ft 490 kts 28°
2026-05-04 09:57 11.33557 100.14782 34848 ft 490 kts 28°
2026-05-04 09:58 11.39529 100.18146 34850 ft 490 kts 28°
2026-05-04 09:58 11.45500 100.21512 34859 ft 490 kts 29°
2026-05-04 10:00 11.69248 100.34930 34856 ft 487 kts 29°
2026-05-04 10:02 11.90796 100.44449 34843 ft 486 kts
2026-05-04 10:04 12.14431 100.44918 34840 ft 485 kts
2026-05-04 10:04 12.21192 100.45091 34848 ft 485 kts
2026-05-04 10:05 12.27932 100.45264 34836 ft 484 kts
2026-05-04 10:05 12.31306 100.45349 34433 ft 489 kts
2026-05-04 10:05 12.34728 100.45434 33655 ft 492 kts
2026-05-04 10:05 12.38110 100.45518 32817 ft 491 kts
2026-05-04 10:06 12.41527 100.45604 31830 ft 493 kts
2026-05-04 10:06 12.43845 100.45662 31316 ft 492 kts
2026-05-04 10:06 12.48350 100.45776 30424 ft 487 kts
2026-05-04 10:08 12.67163 100.46251 26292 ft 464 kts
2026-05-04 10:08 12.70374 100.46332 25606 ft 460 kts
2026-05-04 10:08 12.73563 100.46413 24899 ft 456 kts
2026-05-04 10:08 12.76730 100.46493 24207 ft 453 kts
2026-05-04 10:09 12.79861 100.46572 23516 ft 449 kts
2026-05-04 10:09 12.82988 100.46651 22729 ft 446 kts
2026-05-04 10:09 12.86026 100.46727 22032 ft 441 kts
2026-05-04 10:09 12.89088 100.46804 21380 ft 435 kts
2026-05-04 10:10 12.92101 100.46880 20690 ft 431 kts
2026-05-04 10:10 12.95083 100.46956 20047 ft 427 kts
2026-05-04 10:10 12.98040 100.47030 19394 ft 423 kts
2026-05-04 10:10 13.00970 100.47104 18754 ft 420 kts
2026-05-04 10:11 13.03888 100.47177 18165 ft 417 kts
2026-05-04 10:11 13.06724 100.47266 17941 ft 396 kts
2026-05-04 10:11 13.09352 100.47878 17637 ft 384 kts 23°
2026-05-04 10:11 13.11600 100.49279 17144 ft 374 kts 37°
2026-05-04 10:12 13.13688 100.50854 16704 ft 370 kts 36°
2026-05-04 10:12 13.15774 100.52393 16242 ft 368 kts 36°
2026-05-04 10:12 13.17824 100.53890 15789 ft 365 kts 36°
2026-05-04 10:12 13.19890 100.55394 15353 ft 362 kts 36°
2026-05-04 10:13 13.21966 100.56900 14900 ft 360 kts 36°
2026-05-04 10:13 13.23977 100.58357 14621 ft 353 kts 36°
2026-05-04 10:13 13.25943 100.59781 14520 ft 340 kts 36°
2026-05-04 10:13 13.27843 100.61156 14396 ft 328 kts 35°
2026-05-04 10:14 13.29689 100.62489 14163 ft 321 kts 35°
2026-05-04 10:14 13.31457 100.63849 13789 ft 314 kts 44°
2026-05-04 10:16 13.35524 100.78608 11061 ft 303 kts 79°
2026-05-04 10:16 13.35942 100.80723 10863 ft 305 kts 79°
2026-05-04 10:16 13.36368 100.82846 10809 ft 302 kts 79°
2026-05-04 10:16 13.36797 100.84947 10591 ft 298 kts 78°
2026-05-04 10:17 13.37515 100.86905 10588 ft 297 kts 55°
2026-05-04 10:17 13.39033 100.88356 10613 ft 304 kts 31°
2026-05-04 10:19 13.53162 100.92775 10479 ft 306 kts 15°
2026-05-04 10:19 13.55220 100.93342 10353 ft 307 kts 15°
2026-05-04 10:19 13.57293 100.93910 10177 ft 307 kts 15°
2026-05-04 10:19 13.59347 100.94411 10115 ft 304 kts
2026-05-04 10:20 13.61478 100.94198 9748 ft 314 kts 339°
2026-05-04 10:20 13.63235 100.93006 9316 ft 294 kts 309°
2026-05-04 10:20 13.64262 100.91301 9086 ft 281 kts 291°
2026-05-04 10:20 13.64885 100.89385 8834 ft 278 kts 284°
2026-05-04 10:21 13.65368 100.87477 8580 ft 270 kts 280°
2026-05-04 10:21 13.65295 100.85592 7987 ft 272 kts 247°
2026-05-04 10:21 13.64240 100.84026 7677 ft 265 kts 220°
2026-05-04 10:21 13.62714 100.82994 7320 ft 261 kts 201°
2026-05-04 10:22 13.59286 100.81941 6639 ft 253 kts 191°
2026-05-04 10:22 13.57558 100.81490 6233 ft 259 kts 193°
2026-05-04 10:22 13.55824 100.81029 6113 ft 256 kts 191°
2026-05-04 10:23 13.54074 100.80581 5744 ft 265 kts 191°
2026-05-04 10:23 13.52294 100.80122 5139 ft 261 kts 191°
2026-05-04 10:25 13.44273 100.74338 2650 ft 216 kts 293°
2026-05-04 10:25 13.45147 100.73173 2566 ft 201 kts 320°
2026-05-04 10:25 13.46222 100.72253 2581 ft 201 kts 318°
2026-05-04 10:25 13.47259 100.71339 2642 ft 196 kts 319°
2026-05-04 10:26 13.48429 100.70597 2626 ft 202 kts 346°
2026-05-04 10:26 13.49799 100.70686 2646 ft 200 kts 21°
2026-05-04 10:26 13.51074 100.71215 2667 ft 198 kts 21°
2026-05-04 10:26 13.52369 100.71632 2598 ft 197 kts 18°
2026-05-04 10:27 13.53664 100.72054 2337 ft 192 kts 14°
2026-05-04 10:27 13.54961 100.72350 2102 ft 188 kts 15°
2026-05-04 10:27 13.56205 100.72655 1886 ft 180 kts 13°
2026-05-04 10:27 13.57399 100.72982 1680 ft 174 kts 17°
2026-05-04 10:28 13.58533 100.73299 1431 ft 161 kts 17°
2026-05-04 10:28 13.59559 100.73571 1244 ft 145 kts 16°
2026-05-04 10:28 13.60551 100.73835 1080 ft 152 kts 14°
2026-05-04 10:28 13.61572 100.74106 881 ft 148 kts 14°
2026-05-04 10:29 13.62517 100.74352 697 ft 132 kts 16°
2026-05-04 10:29 13.63386 100.74580 527 ft 124 kts 15°
2026-05-04 10:29 13.64249 100.74808 347 ft 132 kts 14°
2026-05-04 10:29 13.65105 100.75037 164 ft 123 kts 15°
2026-05-04 10:30 13.65879 100.75241 24 ft 101 kts 15°
2026-05-04 10:30 13.66466 100.75394 17 ft 70 kts 14°
2026-05-04 10:30 13.66822 100.75487 20 ft 40 kts 14°
2026-05-04 10:30 13.67066 100.75551 18 ft 33 kts 14°
2026-05-04 10:31 13.67276 100.75601 18 ft 30 kts
2026-05-04 10:31 13.67478 100.75589 17 ft 27 kts 347°
2026-05-04 10:32 13.68216 100.75663 17 ft 17 kts 15°
2026-05-04 10:33 13.68333 100.75695 18 ft 17 kts 15°
2026-05-04 10:33 13.68451 100.75724 18 ft 17 kts 14°
2026-05-04 10:33 13.68567 100.75754 18 ft 17 kts 14°
2026-05-04 10:33 13.68685 100.75785 18 ft 17 kts 14°
2026-05-04 10:34 13.68801 100.75816 18 ft 17 kts 15°
2026-05-04 10:34 13.68918 100.75846 18 ft 17 kts 13°
2026-05-04 10:34 13.69035 100.75877 18 ft 17 kts 14°
2026-05-04 10:34 13.69106 100.75855 18 ft 12 kts 288°
2026-05-04 10:35 13.69130 100.75769 17 ft 13 kts 285°
2026-05-04 10:35 13.69143 100.75697 17 ft 7 kts 256°
2026-05-04 10:35 13.69114 100.75680 17 ft 2 kts 184°
2026-05-04 10:35 13.69096 100.75679 17 ft 3 kts 191°
2026-05-04 10:36 13.69076 100.75674 17 ft 2 kts 194°
2026-05-04 10:36 13.69071 100.75672 17 ft 1 kts 194°
2026-05-04 10:36 13.69070 100.75672 17 ft 0 kts 194°